Wind_Speed
23 23 23 23 23 23 23 23 22 22 22 21 21 20 20 20 19 19 19 19 18 17 16 15 16 17 18 19 20 21 21 21 21 21 20 19 19 18 18 18 18 18 18 18 18 18 18 17 16 15 14 14 17 19 20 20 20 19 18 18 19 20 20 20 21 21 22 22 22
23 23 23 23 23 23 22 22 22 22 22 21 21 21 20 20 19 19 19 19 18 18 18 17 18 18 19 19 19 20 20 20 20 20 20 19 18 18 18 18 18 18 18 18 19 19 18 17 16 14 13 14 17 20 20 20 20 19 18 19 19 20 20 20 21 21 21 21 22
23 23 23 23 23 22 22 22 21 22 22 21 21 21 21 20 20 19 19 18 19 19 19 19 18 18 19 19 19 19 19 19 19 19 19 18 18 18 18 18 18 18 18 19 19 19 18 17 16 15 14 14 18 20 20 20 20 19 19 19 19 20 20 20 20 21 21 21 21
23 23 23 23 23 22 22 21 21 22 22 22 21 21 21 21 20 19 19 19 19 19 19 19 19 18 18 18 18 18 17 17 18 18 18 18 17 17 17 17 18 18 18 19 19 19 18 17 16 15 15 15 17 19 19 20 20 19 19 19 19 20 20 20 20 20 20 20 20
23 23 23 22 22 22 22 21 22 22 22 22 22 22 22 21 20 20 20 20 20 19 20 20 20 19 19 18 18 17 17 17 17 17 17 17 16 16 16 17 17 18 18 19 19 18 18 17 16 16 16 16 17 18 19 19 20 20 20 20 20 20 20 20 20 20 20 20 20
22 22 22 22 22 22 22 22 22 22 22 22 22 22 21 21 20 20 20 20 20 20 20 20 20 20 20 19 18 17 17 17 17 17 16 16 15 15 15 16 17 17 18 18 19 18 18 18 17 17 16 16 17 17 18 19 20 21 21 21 21 21 21 20 19 19 20 20 20
21 21 21 21 21 21 21 21 21 21 22 22 22 22 21 20 20 20 20 20 20 21 21 21 21 21 20 19 19 18 18 17 17 16 15 15 14 15 15 16 16 17 17 18 18 18 18 18 17 17 17 17 17 18 19 20 21 21 22 22 22 21 21 20 19 19 19 19 20
21 21 20 20 21 21 21 21 21 21 21 22 22 21 20 20 20 20 20 20 20 20 21 21 21 20 20 19 18 18 17 17 16 15 14 13 13 14 15 15 16 17 17 17 18 18 18 18 18 17 17 17 17 18 19 20 21 22 22 22 22 22 21 21 20 19 19 19 19
21 20 20 20 20 20 20 20 20 21 21 21 21 20 20 19 19 20 20 20 20 20 20 20 20 19 19 18 18 17 17 16 15 14 13 12 13 14 14 15 16 16 17 17 17 18 18 18 18 17 17 17 17 18 18 20 21 22 22 22 22 22 22 22 21 20 19 19 18
20 20 20 20 19 19 19 19 20 20 20 20 20 19 19 19 19 19 19 19 19 19 19 19 19 19 18 18 17 17 16 15 14 13 12 12 12 13 14 15 16 16 16 17 17 17 17 17 17 17 17 17 17 17 18 19 20 21 22 22 22 22 22 22 22 21 20 19 18
20 20 20 19 19 19 19 19 19 20 20 19 19 19 18 18 18 18 18 18 18 18 18 18 18 18 18 17 17 16 15 15 14 13 12 12 12 13 14 15 15 16 16 16 16 16 16 16 17 17 17 16 17 17 18 19 20 20 21 21 21 22 22 22 22 22 21 20 19
19 20 20 19 19 19 19 19 19 19 19 19 19 18 18 17 17 17 17 17 17 17 17 17 17 17 17 16 16 15 15 14 14 13 13 13 13 13 14 14 15 16 16 16 16 16 16 16 16 16 16 16 16 17 18 18 19 19 20 20 20 21 21 21 21 21 21 20 20
19 20 20 20 19 19 19 19 19 19 19 18 18 17 17 16 16 16 16 16 17 17 16 16 16 16 16 15 15 15 14 14 14 14 13 13 13 13 14 15 15 16 16 16 16 16 15 15 16 16 16 16 16 16 17 17 17 18 18 19 19 19 20 20 20 21 21 21 21
19 20 20 20 20 20 20 19 19 19 18 18 17 16 16 15 15 15 15 15 16 16 16 16 15 15 15 15 15 15 14 14 14 14 14 14 13 14 14 15 15 16 16 16 16 16 16 16 16 16 16 16 16 16 16 16 16 16 17 17 18 18 18 18 19 19 20 20 21
19 20 20 20 20 20 19 19 18 18 17 16 16 15 14 14 14 14 14 14 15 15 15 16 16 15 15 14 15 15 15 15 15 14 14 14 14 14 14 15 15 16 17 17 16 16 16 16 16 16 16 16 15 15 15 15 15 15 16 16 17 17 17 17 18 18 19 19 20
19 19 19 19 19 19 19 18 17 16 16 15 14 14 13 13 13 13 13 14 14 14 15 15 16 15 15 14 14 15 15 15 15 15 14 14 14 13 14 14 15 16 17 17 16 16 15 16 16 16 16 16 15 15 14 14 15 15 15 16 16 16 16 16 17 17 17 18 18
19 19 18 18 18 18 17 16 15 15 14 14 13 13 12 12 12 12 12 13 14 14 15 15 15 15 15 14 14 14 15 15 15 15 14 14 13 13 13 14 15 16 17 17 17 16 16 15 16 16 16 16 15 15 14 14 14 15 15 15 16 16 16 16 16 16 16 17 17
18 17 17 17 17 16 15 15 14 13 13 12 12 12 12 12 12 12 12 12 13 14 14 14 14 14 14 14 14 14 15 15 16 15 15 14 13 13 13 14 14 15 16 16 17 16 16 16 16 16 16 16 15 15 14 14 14 15 15 15 15 15 15 15 15 15 16 16 16
16 16 16 16 15 14 14 13 12 12 11 11 11 11 11 11 11 11 11 12 12 13 14 14 14 14 14 14 14 14 14 15 16 16 15 14 13 13 13 14 14 15 16 16 17 16 16 16 16 16 16 16 16 15 14 14 14 15 15 15 15 15 15 15 15 15 15 15 15
15 15 14 14 14 13 12 12 11 11 10 10 11 11 11 10 10 11 11 11 12 12 13 14 14 14 14 14 14 14 14 14 15 15 15 14 14 14 14 14 15 15 16 16 17 17 16 17 17 17 17 17 16 15 15 14 14 14 15 15 15 16 15 15 15 15 15 15 15
13 13 13 13 12 12 11 11 10 10 10 10 10 10 10 10 10 10 11 11 12 12 13 13 14 15 15 15 15 14 14 14 14 14 14 14 14 14 14 15 15 16 16 17 17 16 17 17 17 18 18 17 16 16 15 14 14 14 15 16 16 16 15 15 15 15 15 15 15
12 13 12 12 11 11 11 10 10 10 9 9 10 10 10 10 10 10 10 11 11 12 13 13 14 15 15 15 15 15 14 14 13 14 14 14 14 15 15 16 16 17 17 17 17 16 16 17 17 17 17 17 16 15 15 14 14 15 15 16 16 16 15 15 15 15 16 16 16
12 12 11 10 10 10 10 10 9 9 9 9 9 10 10 10 10 10 11 11 12 12 13 13 14 15 15 15 15 15 15 15 14 14 14 15 15 15 15 16 16 17 17 17 16 16 16 16 17 17 16 16 15 15 15 15 15 16 16 17 16 15 14 14 15 15 16 17 16
12 12 11 10 9 9 10 9 9 9 9 9 9 10 10 10 10 11 11 12 12 13 14 14 14 15 15 16 16 16 16 16 16 15 15 15 15 16 16 16 16 16 16 16 16 16 16 16 17 17 16 15 15 15 15 15 16 16 17 17 16 15 14 14 15 16 17 18 17
12 11 10 9 9 9 9 9 9 9 9 9 9 10 10 10 11 11 12 13 13 14 14 15 15 16 16 16 16 17 17 17 17 17 16 16 16 16 16 16 16 16 16 16 16 16 16 17 17 17 17 16 15 15 15 16 16 16 16 16 15 15 15 16 17 18 18 18 18
12 11 10 9 9 9 9 9 8 8 8 9 9 10 10 11 11 12 13 13 14 14 15 15 16 16 17 17 17 17 17 17 17 17 16 16 16 16 15 16 16 16 16 16 16 16 17 18 18 18 17 16 15 15 15 16 16 16 16 16 15 15 16 17 18 19 19 19 19
11 11 10 10 10 9 9 9 8 8 8 9 9 10 10 11 11 12 13 13 14 15 15 16 16 17 17 18 18 18 18 18 17 17 16 16 15 15 15 15 15 16 16 16 17 17 18 18 18 18 17 16 15 15 16 16 16 16 17 16 16 16 17 18 19 20 20 20 20
11 11 11 10 10 10 9 8 8 8 8 9 10 10 11 11 12 12 13 14 14 15 15 16 16 17 17 18 18 18 18 17 17 16 16 15 15 15 15 15 15 15 16 16 17 17 18 18 18 17 15 15 15 15 16 16 17 17 17 17 17 17 17 18 19 19 20 20 20
12 12 11 11 10 10 9 8 8 8 8 9 10 11 11 11 12 12 13 14 14 15 16 16 17 17 17 17 18 17 17 17 16 16 15 15 14 14 14 14 15 15 16 16 16 17 17 17 17 16 15 14 15 15 16 16 17 18 18 18 17 17 17 17 17 18 19 19 20
12 12 12 11 11 10 9 8 8 8 9 9 10 11 11 11 12 12 13 14 14 15 16 16 17 17 17 17 17 17 17 16 15 15 14 14 14 14 14 14 15 15 16 16 16 16 16 16 16 15 15 14 15 15 16 16 17 17 17 17 16 16 15 16 16 17 18 18 19
13 12 12 12 11 10 9 9 8 8 9 10 10 11 11 11 11 12 13 14 14 15 15 16 17 17 18 17 17 17 16 15 15 14 14 14 14 14 14 14 14 15 15 15 15 15 15 15 15 15 15 15 15 15 16 16 16 16 15 15 14 14 15 15 16 17 18 19 20
13 13 13 13 12 11 10 9 9 9 10 10 10 11 11 11 11 12 12 14 15 15 16 17 17 18 18 18 17 16 15 15 14 13 13 13 13 14 14 14 14 15 15 15 15 15 15 15 15 15 15 15 14 14 14 14 15 15 14 14 14 15 15 17 18 19 20 21 22
13 13 13 13 12 11 10 9 9 10 10 10 10 10 10 11 11 11 12 13 14 15 16 17 18 19 19 19 18 16 15 14 13 13 13 13 13 14 14 14 14 15 15 15 15 15 15 16 15 15 14 13 13 13 13 14 15 15 15 16 16 17 18 19 21 22 23 23 24
14 13 13 13 12 11 10 10 10 10 10 9 9 9 10 10 11 12 13 14 15 15 16 17 18 19 19 19 18 16 15 13 12 12 12 13 13 14 14 14 15 15 15 14 14 15 15 15 15 14 13 13 12 12 13 14 15 16 17 18 19 20 21 22 23 24 24 24 24
14 14 13 13 12 11 10 10 10 9 9 9 9 9 9 10 11 13 14 15 15 16 16 17 18 19 19 19 17 16 14 13 12 12 12 12 13 13 14 14 15 15 14 14 13 14 14 14 14 13 13 13 13 13 13 14 16 17 18 20 21 22 23 24 24 24 24 24 24
14 13 13 13 12 11 11 10 9 9 8 8 8 9 10 11 12 13 14 15 16 16 16 17 18 18 18 18 17 15 14 13 12 11 11 12 12 13 14 14 14 14 14 13 12 12 13 13 13 13 13 13 14 15 15 16 17 19 20 21 22 23 23 23 23 23 23 23 23
14 13 13 13 12 11 11 10 9 8 8 8 9 9 11 12 12 13 14 15 16 16 16 17 17 18 18 17 16 15 13 12 11 11 11 11 12 13 13 13 14 13 13 11 10 10 11 12 13 14 14 15 16 17 18 18 19 20 21 22 22 22 22 21 21 22 22 22 23
13 13 13 13 12 12 11 10 9 8 8 8 9 10 11 12 13 14 15 15 16 16 16 16 17 17 17 17 16 15 13 11 10 10 10 11 11 12 12 12 13 13 12 10 9 9 10 11 13 14 16 17 18 18 19 19 20 20 21 21 21 21 20 20 21 21 22 23 23
13 13 13 13 12 11 10 9 9 8 9 9 9 10 11 12 13 14 15 15 15 15 15 15 16 16 16 16 15 13 12 10 9 10 10 11 11 11 11 11 12 12 11 10 9 10 10 12 13 14 16 18 18 19 19 19 20 20 20 21 21 21 21 21 21 22 23 23 23
13 13 13 13 12 11 10 9 9 9 9 9 10 11 12 13 13 14 14 14 14 14 14 15 15 16 15 15 14 12 11 9 10 10 11 11 11 11 10 10 11 11 11 10 11 11 13 14 15 16 16 17 18 18 19 19 20 20 21 21 21 22 22 22 22 23 23 23 23
13 13 13 12 11 11 10 9 8 8 9 9 10 11 12 13 13 13 13 13 13 13 13 14 15 15 14 13 12 11 10 10 10 11 11 11 10 10 10 10 11 11 12 12 13 14 16 17 18 18 17 17 17 18 18 19 20 21 22 22 22 22 22 23 23 23 23 23 22
Wind_Direction
46 46 45 45 46 47 47 45 43 41 39 37 35 32 30 28 26 24 21 19 17 14 10 4 1 359 358 358 359 360 360 360 359 359 359 359 359 359 358 358 359 359 360 0 2 4 7 11 13 15 15 9 6 9 13 14 15 14 12 10 8 7 6 5 3 1 1 1 1
45 45 44 44 43 43 42 41 39 37 34 32 30 28 26 25 23 20 18 16 14 11 8 4 2 1 360 360 1 2 1 359 357 356 357 360 0 1 1 2 3 5 6 7 10 12 15 17 18 19 18 14 14 18 21 20 19 17 14 13 11 10 9 7 4 2 0 359 0
44 43 42 41 40 39 39 38 35 32 30 27 25 23 22 20 18 16 14 12 9 8 7 5 4 2 1 0 1 2 0 357 354 354 357 0 2 4 5 6 8 10 12 14 16 18 19 21 22 23 23 21 23 24 25 24 23 20 17 13 11 10 9 6 3 1 359 357 357
43 41 40 39 38 37 36 34 31 27 25 22 20 18 16 14 13 11 10 8 7 6 6 5 4 3 1 0 360 360 358 354 352 354 358 2 6 8 9 11 13 15 16 18 19 20 22 23 26 28 28 29 28 27 26 25 23 21 18 14 11 9 7 5 2 359 356 354 354
42 40 39 38 36 34 32 29 26 23 20 17 14 13 12 10 9 8 7 7 6 5 4 3 3 2 1 359 358 357 355 353 354 357 1 5 9 12 13 15 18 18 19 19 21 21 22 23 26 29 31 31 30 28 26 23 21 19 17 14 11 9 6 3 360 357 354 352 352
41 39 37 35 32 30 27 25 22 19 16 13 11 10 9 8 7 7 7 6 4 3 1 1 360 359 359 358 356 354 353 353 356 360 4 8 12 16 17 18 20 20 20 19 20 20 20 20 22 25 26 27 26 24 21 19 18 16 13 11 9 7 5 1 358 355 353 351 350
40 37 35 32 28 26 23 21 18 15 13 11 9 9 8 7 6 5 5 3 1 1 0 360 359 358 358 356 355 354 353 354 358 2 7 10 14 18 19 19 20 19 18 18 17 17 17 16 16 17 17 18 19 18 16 15 14 12 10 8 7 5 3 360 358 355 353 351 349
37 35 33 29 26 23 20 18 15 13 11 9 8 7 7 5 4 3 2 1 1 1 360 360 360 360 359 357 356 355 355 356 359 3 8 12 15 17 18 18 17 17 16 14 13 12 11 11 10 9 8 8 10 11 11 9 9 8 7 5 4 3 1 359 358 356 354 352 350
35 33 30 27 24 21 18 15 13 11 9 8 7 7 5 3 3 2 2 2 2 1 0 0 1 0 0 359 358 357 356 357 358 2 6 11 13 14 14 14 13 13 12 10 8 7 6 5 4 2 1 0 2 3 4 3 4 4 4 3 2 1 0 359 358 357 357 355 354
33 31 27 25 22 18 15 12 10 8 8 7 7 6 4 2 2 3 3 2 0 0 1 2 1 1 2 1 0 359 358 357 357 358 2 6 8 9 9 9 9 8 7 5 3 2 0 359 358 356 355 353 353 355 356 357 359 360 1 1 360 359 359 359 358 359 359 359 358
31 28 25 22 18 15 12 10 9 8 7 7 6 4 3 2 3 3 2 1 0 2 3 3 2 2 2 2 0 359 357 355 354 354 356 359 2 3 4 4 3 3 2 1 359 357 356 355 353 352 350 348 347 348 349 352 354 356 357 358 358 358 358 358 358 359 0 1 0
28 24 21 17 14 12 11 10 9 7 7 6 5 4 3 3 3 2 2 1 2 2 3 2 2 1 1 0 359 357 355 353 351 350 350 352 354 357 358 359 359 358 357 357 356 354 353 352 351 348 346 345 343 343 345 347 349 352 354 355 356 357 358 357 357 358 358 360 1
23 19 16 13 12 11 10 9 8 7 6 5 4 3 3 4 3 2 2 2 2 2 2 1 0 359 358 357 356 354 352 350 347 346 346 347 348 350 352 354 354 354 353 353 353 353 352 352 350 347 345 343 341 340 341 342 344 347 350 352 354 356 357 357 356 356 356 357 358
18 15 13 12 11 10 9 8 8 6 5 4 3 3 4 4 4 3 2 3 3 2 1 359 359 357 356 353 352 350 349 347 345 342 341 342 343 344 346 348 349 350 350 350 351 352 352 352 350 348 344 341 339 337 337 337 339 342 346 348 351 354 355 356 355 355 354 354 355
15 13 11 10 10 9 9 8 7 5 4 4 3 3 3 4 4 3 2 3 4 4 2 0 359 358 357 355 352 350 348 347 344 341 339 338 339 339 341 342 344 346 346 347 348 349 350 350 349 347 344 340 337 334 332 331 332 336 340 343 347 349 352 353 354 354 354 353 354
13 12 11 10 9 8 8 7 6 4 3 3 4 3 3 4 4 3 3 3 5 6 6 5 3 1 0 359 357 354 351 349 346 343 340 339 337 337 337 338 339 341 342 342 342 343 345 345 345 344 341 338 334 330 327 325 326 329 333 338 341 344 347 349 351 352 353 353 353
12 12 11 10 9 7 6 6 5 4 3 3 4 4 4 4 4 5 5 5 6 7 9 9 7 5 3 2 1 358 354 351 349 347 344 341 338 336 335 334 335 336 336 336 336 336 336 337 338 338 337 335 331 327 322 319 320 323 328 332 336 340 343 346 349 350 351 352 352
12 11 10 8 7 6 5 4 4 4 4 5 5 6 5 5 5 7 7 7 7 7 8 9 8 6 3 0 359 357 353 351 349 347 345 342 339 336 334 332 332 331 331 330 329 329 329 330 331 332 332 331 328 324 319 315 315 319 324 329 333 337 340 343 346 348 349 350 350
12 10 8 7 6 5 4 4 4 4 5 6 6 6 6 6 6 6 7 8 8 6 6 5 4 3 0 357 355 353 351 349 347 346 344 342 339 335 333 330 328 327 326 324 324 323 324 324 326 327 327 327 325 322 316 312 312 317 323 328 332 334 336 339 342 344 346 347 347
11 8 6 4 3 3 3 3 3 4 5 7 7 7 7 7 6 5 5 5 4 3 1 0 359 358 356 354 352 350 349 348 345 343 342 340 337 334 330 327 325 323 321 320 320 320 321 322 323 324 325 325 323 319 314 310 311 316 322 327 329 331 332 334 336 338 340 341 342
10 6 2 0 0 1 1 1 2 3 4 6 6 6 6 5 4 3 2 0 359 358 357 356 355 353 352 351 350 349 348 347 343 340 338 336 334 330 327 324 321 319 318 318 318 319 320 321 321 322 323 323 321 317 312 308 309 313 318 321 323 324 325 327 329 332 333 334 335
6 1 357 355 357 358 358 358 358 359 0 3 4 3 2 0 359 358 356 354 353 353 352 351 351 350 349 348 347 346 345 343 340 337 334 331 328 326 324 321 319 317 317 317 319 320 321 321 320 320 320 320 318 314 309 305 305 308 311 313 315 317 318 320 323 326 327 327 327
0 355 351 350 352 354 353 352 352 352 355 359 0 0 358 355 353 352 350 350 348 348 348 347 346 346 345 344 343 342 340 337 334 332 330 327 324 322 320 319 317 317 317 319 320 321 321 321 320 319 317 316 314 310 305 301 301 304 307 309 311 312 314 316 319 321 322 322 321
354 349 345 345 346 348 347 344 344 345 349 354 356 355 353 350 348 347 346 346 346 345 345 344 343 342 341 340 339 338 336 333 331 328 325 323 320 319 319 319 318 319 319 321 322 323 323 321 320 318 315 312 309 305 300 298 299 303 307 309 311 312 314 315 317 318 319 318 317
348 344 340 338 339 339 339 337 337 340 344 347 349 349 348 346 344 344 344 345 345 345 344 343 342 340 339 337 337 335 334 332 329 326 322 320 319 319 319 320 321 321 322 323 324 324 324 323 321 317 313 310 306 302 299 297 300 304 309 311 312 313 314 315 316 317 317 317 316
343 339 334 331 331 331 331 329 330 333 337 340 342 342 341 340 341 341 343 344 345 346 345 344 342 341 340 338 336 335 334 333 330 326 322 320 319 320 322 323 323 324 325 325 325 326 326 324 321 317 313 309 306 303 300 299 301 306 310 312 313 313 314 314 315 316 317 316 315
337 333 327 325 323 323 322 321 322 326 330 333 334 334 334 334 336 338 341 344 345 346 346 345 344 343 342 340 338 337 335 333 330 326 322 320 321 322 324 325 326 326 327 327 326 326 326 324 321 317 312 309 307 305 302 301 303 308 311 312 312 312 313 313 313 314 315 315 314
330 327 322 319 316 314 314 313 315 318 322 325 326 327 328 329 332 335 339 342 344 345 346 346 345 344 342 341 339 337 335 333 330 327 324 322 323 324 326 327 328 328 328 327 327 326 325 323 320 317 314 311 308 305 303 302 305 308 311 311 311 311 311 311 311 311 311 311 311
326 322 318 314 310 308 306 305 307 310 313 317 320 321 322 324 328 332 336 339 342 343 344 343 343 342 340 338 337 335 333 331 329 326 325 324 325 326 328 328 329 328 328 327 327 326 325 324 321 320 317 313 308 305 304 305 306 309 311 312 312 311 310 309 309 308 308 307 307
323 319 315 310 306 303 300 299 299 302 306 310 314 316 319 321 325 330 333 336 338 340 340 339 338 338 336 335 333 332 330 329 328 326 325 325 326 327 329 329 329 329 328 328 328 327 327 327 326 325 322 317 312 310 309 308 309 311 313 314 314 313 312 310 308 307 307 308 308
321 316 311 307 302 299 296 295 295 296 299 304 309 312 316 319 324 328 331 333 335 336 336 336 335 334 333 332 330 329 327 327 327 326 326 325 326 328 329 329 329 329 329 329 329 329 329 329 330 330 327 322 318 315 313 312 313 316 318 319 318 316 314 312 311 311 311 312 313
319 314 308 304 299 296 293 292 291 293 296 301 306 310 314 318 322 326 329 331 332 333 334 335 335 334 332 331 328 327 326 326 326 326 325 325 326 328 329 329 329 329 330 330 329 329 328 330 331 332 330 327 322 318 315 316 318 320 321 321 320 318 316 315 315 316 316 317 318
318 312 306 301 297 293 290 289 289 291 295 299 304 309 313 316 320 324 327 329 331 333 335 336 336 336 334 331 328 326 325 324 324 324 324 324 326 328 329 329 329 330 331 331 330 329 329 330 332 332 331 328 323 319 317 316 316 316 316 316 316 315 316 317 318 319 319 320 320
317 310 304 299 294 290 288 287 288 291 295 299 304 308 312 315 319 324 328 330 332 334 336 338 338 337 336 333 330 326 324 323 322 321 321 323 325 328 329 329 329 330 332 332 331 331 331 332 333 333 331 326 321 319 318 316 312 310 310 310 310 312 314 316 318 319 320 320 321
316 308 302 296 291 287 285 285 287 290 294 299 303 307 311 315 320 324 328 330 332 334 336 338 339 339 337 335 331 327 323 321 319 318 319 322 326 329 330 330 330 331 333 334 335 336 336 336 335 333 330 324 319 318 317 315 311 310 309 309 310 311 313 315 317 318 320 321 321
314 307 300 293 288 284 282 283 286 289 293 298 302 307 312 316 321 325 327 329 331 333 336 338 339 339 338 336 333 329 324 319 317 316 318 322 327 329 330 330 330 331 334 337 340 341 339 338 336 333 329 324 320 317 316 315 314 313 313 314 314 315 317 318 320 320 321 323 324
313 306 298 291 285 281 280 282 284 288 292 297 303 309 314 318 322 325 327 329 331 333 335 337 339 339 339 336 334 331 326 320 316 316 319 324 328 330 331 331 330 331 334 338 343 343 341 340 338 335 331 328 325 323 320 319 318 318 319 320 321 322 323 324 325 325 326 326 327
312 304 296 288 283 280 279 280 283 287 293 299 306 312 316 319 322 325 327 329 331 333 335 337 339 340 338 336 334 332 329 323 318 318 322 327 330 331 331 331 330 330 333 336 339 340 340 340 338 336 334 332 330 328 326 325 325 325 326 327 328 329 330 330 330 329 329 330 331
310 303 295 287 282 279 278 279 283 289 296 303 309 314 318 321 324 326 328 330 331 333 335 337 339 339 338 336 334 335 334 328 322 323 327 331 331 332 331 330 329 329 329 331 333 334 335 336 336 336 336 334 332 331 330 330 331 332 334 334 335 334 333 333 332 331 331 332 334
309 302 294 287 281 278 278 282 287 295 302 308 313 317 320 323 325 326 329 331 332 334 335 337 339 339 338 337 337 338 338 333 329 330 333 335 334 333 332 330 329 327 327 328 330 331 332 333 334 336 337 335 333 332 332 334 337 338 338 337 337 335 334 333 332 332 332 333 335
308 302 294 286 281 279 282 288 296 303 308 312 316 319 321 323 325 327 330 333 335 336 337 339 340 340 340 338 339 340 340 336 336 337 340 341 340 337 333 331 329 328 328 330 332 334 335 337 337 337 337 336 334 333 335 338 340 340 338 337 336 335 334 333 332 333 333 333 334
Height
843 843 843 843 843 843 843 843 843 843 842 842 842 841 841 840 840 839 838 838 837 837 836 835 835 834 833 832 831 830 829 828 828 827 826 824 823 822 821 820 819 818 817 816 815 813 813 812 811 811 810 810 808 807 806 805 804 803 803 802 801 800 798 798 796 795 793 792 791
844 844 843 843 843 843 843 843 843 843 842 842 842 841 841 840 839 839 838 838 837 836 836 835 834 833 832 831 831 830 829 828 827 826 825 824 823 822 821 819 818 818 816 815 814 813 812 811 811 810 810 809 808 807 806 805 804 803 803 801 801 799 798 797 796 795 793 792 791
844 844 844 843 843 843 843 843 843 843 842 842 841 841 840 839 839 838 838 837 836 836 835 834 833 832 832 831 830 829 828 828 827 825 824 823 822 821 820 819 818 817 816 815 814 813 812 811 811 810 809 809 808 807 806 805 804 803 803 802 800 799 798 797 796 795 793 792 791
844 844 844 843 843 843 843 843 843 842 842 841 841 840 840 839 838 838 837 836 836 835 834 833 833 832 831 830 829 828 828 827 826 825 823 823 822 821 820 818 818 817 815 814 813 813 812 811 810 810 809 808 808 807 806 805 804 803 803 802 800 799 798 797 796 795 793 792 791
844 844 844 844 843 843 843 843 843 842 842 841 840 840 839 838 838 837 836 835 835 834 833 833 832 831 830 829 828 828 827 826 825 824 823 822 821 820 819 818 817 816 815 814 813 813 812 811 810 810 809 808 808 807 806 805 804 803 802 801 800 799 798 797 796 795 793 793 791
845 844 844 844 844 843 843 843 842 842 841 841 840 839 838 838 837 836 835 835 834 833 833 832 831 830 829 828 828 827 826 825 824 823 823 822 821 820 819 818 817 816 815 814 813 813 812 811 810 809 809 808 808 807 806 805 804 803 802 801 800 799 798 797 796 794 793 792 791
845 845 844 844 844 843 843 843 842 842 841 840 839 838 838 837 836 835 835 834 833 832 832 831 830 829 828 828 827 826 825 824 823 823 822 821 820 819 819 818 817 816 815 814 813 813 812 811 810 809 808 808 807 806 806 805 804 803 802 801 800 799 798 797 795 794 793 792 791
845 845 845 844 844 843 843 843 842 841 840 839 839 838 837 836 836 835 834 833 833 832 831 830 829 829 828 827 826 825 825 824 823 823 822 821 820 819 818 818 817 816 815 814 813 813 812 811 810 809 809 808 807 806 805 804 803 803 802 800 799 798 798 797 795 794 793 792 790
845 845 845 844 844 843 843 842 842 841 840 839 838 838 837 836 835 834 833 833 832 832 831 830 829 828 828 827 826 825 824 823 823 822 822 821 820 819 818 818 817 816 815 814 813 813 812 811 810 810 809 808 807 806 805 804 803 803 801 800 799 798 797 796 795 794 793 792 790
845 845 844 844 843 843 842 842 841 840 839 838 838 837 836 835 835 834 833 833 832 831 830 830 829 828 827 827 826 825 824 823 823 822 821 821 820 819 818 817 817 816 815 814 813 813 812 811 810 810 809 808 807 806 805 804 803 802 801 800 799 798 797 796 795 793 792 791 790
845 845 844 844 843 843 842 841 840 840 839 838 837 837 836 835 834 833 833 833 832 831 830 829 828 828 827 826 826 825 824 823 823 822 821 820 820 819 818 817 817 816 815 814 813 813 812 811 810 809 809 808 807 806 805 804 803 802 801 800 799 798 797 795 794 793 792 791 790
845 844 844 843 843 842 841 841 840 839 838 838 837 836 835 835 834 833 833 832 831 831 830 829 828 828 827 826 826 825 824 823 823 822 821 820 820 819 818 817 817 816 815 814 813 812 811 811 810 809 808 808 807 806 805 804 803 802 801 800 799 798 796 795 794 793 792 791 789
845 844 843 843 843 842 841 840 839 838 838 837 837 836 835 835 834 833 833 832 831 831 830 829 828 828 827 826 825 825 824 823 823 822 821 820 819 819 818 817 816 816 815 814 813 812 811 810 809 808 808 807 806 806 805 804 803 802 800 799 798 797 796 795 794 793 792 790 789
844 844 843 843 842 841 840 839 839 838 838 837 836 836 835 834 834 833 833 832 831 830 830 829 828 828 827 826 825 824 824 823 822 822 821 820 819 818 818 817 816 815 815 814 813 812 811 810 809 808 808 807 806 805 804 803 803 801 800 799 798 797 796 794 793 792 791 790 788
844 843 843 842 841 840 840 839 838 838 837 837 836 836 835 834 834 833 833 832 831 830 829 829 828 827 827 826 825 824 823 823 822 821 820 820 819 818 818 817 816 815 814 813 813 812 811 810 809 808 807 806 805 804 804 803 802 801 800 799 798 796 795 794 793 792 791 789 788
843 843 842 841 841 840 839 839 838 838 837 837 836 835 835 834 833 833 832 832 831 830 829 828 828 827 826 826 825 824 823 823 822 821 820 819 818 818 817 817 816 815 814 813 813 812 811 810 808 808 807 806 805 804 803 802 801 800 799 798 797 796 795 794 793 792 790 789 788
843 842 842 841 840 840 839 839 838 838 837 837 836 835 835 834 833 833 832 831 831 830 829 828 828 827 826 825 824 824 823 822 821 821 820 819 818 818 817 816 815 814 814 813 812 811 810 809 808 807 806 805 804 803 803 802 801 800 799 798 797 796 795 794 793 791 790 789 788
842 842 841 841 840 840 839 839 838 838 837 836 836 835 834 834 833 833 832 831 830 829 828 828 827 826 826 825 824 823 823 822 821 820 819 818 818 817 816 816 815 814 813 812 811 810 809 808 808 807 806 805 804 803 802 801 800 799 799 798 797 796 795 794 793 791 790 789 788
842 841 841 841 840 840 839 838 838 837 837 836 835 835 834 834 833 833 832 831 830 829 828 828 827 826 825 824 824 823 822 821 821 820 819 818 818 817 816 815 814 813 813 812 811 810 809 808 807 806 805 804 803 802 802 801 800 799 798 798 797 796 795 793 792 791 790 789 788
841 841 841 840 840 839 839 838 838 837 836 836 835 835 834 833 833 832 831 831 830 829 828 827 826 826 825 824 823 823 822 821 820 819 818 818 817 816 815 814 813 813 812 811 810 809 808 807 807 806 805 804 803 802 801 800 799 799 798 797 796 795 794 793 792 791 790 788 788
841 841 840 840 839 839 838 838 837 837 836 835 835 834 834 833 833 832 831 830 829 829 828 827 826 825 824 823 823 822 821 820 820 819 818 817 816 816 815 814 813 812 811 810 809 808 808 807 806 805 804 803 802 801 800 800 799 798 797 797 796 795 794 793 792 790 789 788 787
840 840 840 839 839 838 838 837 837 836 836 835 835 834 833 833 832 832 831 830 829 828 828 827 826 825 824 823 822 821 820 820 819 818 818 817 816 815 814 813 812 811 810 809 808 808 807 806 805 804 803 802 801 801 800 799 798 797 796 795 794 794 793 792 791 790 788 788 787
840 840 839 839 838 838 837 837 836 836 835 835 834 833 833 832 832 831 830 830 829 828 827 826 825 824 823 823 822 821 820 819 818 818 817 816 815 814 813 812 811 810 809 808 808 807 806 805 804 803 803 802 801 800 799 798 797 796 795 794 793 792 792 791 790 789 788 787 786
839 839 838 838 838 837 837 836 836 835 835 834 833 833 833 832 831 831 830 829 828 827 826 826 825 824 823 822 821 820 819 818 818 817 816 815 814 813 812 812 811 810 809 808 807 806 805 804 803 802 801 801 800 799 798 797 796 795 794 793 792 791 791 790 789 788 787 786 785
839 838 838 837 837 836 836 835 835 834 834 833 833 833 832 831 831 830 829 828 828 827 826 825 824 823 823 822 821 820 819 818 817 816 815 814 813 812 812 811 810 809 808 807 807 806 805 804 803 801 800 799 799 798 797 796 795 794 793 792 791 790 790 789 788 788 787 785 784
838 838 837 837 836 836 835 835 834 834 833 833 832 832 831 831 830 829 828 828 827 826 825 824 823 823 822 821 820 819 818 817 816 815 814 813 812 811 811 810 809 808 808 807 806 805 804 803 802 801 799 798 798 797 797 796 795 794 793 792 791 790 789 788 787 786 786 785 783
837 837 836 836 835 835 834 834 833 833 833 832 832 831 831 830 829 828 828 827 826 825 824 823 823 822 821 820 819 818 817 816 815 814 813 812 811 811 810 809 808 808 807 806 805 804 803 802 801 800 798 798 797 796 796 795 794 793 792 791 790 789 788 787 786 785 784 783 783
836 836 835 835 834 834 833 833 833 832 832 831 831 830 830 829 828 828 827 826 825 824 823 823 822 821 820 819 818 817 816 815 814 813 812 812 811 810 809 808 808 807 806 805 804 803 802 801 800 799 798 797 796 795 795 794 793 793 792 791 789 788 787 786 785 784 783 783 781
835 835 834 834 833 833 833 832 832 831 831 830 830 829 829 828 828 827 826 825 824 823 823 822 821 820 819 818 817 816 815 814 813 813 812 811 810 809 808 808 807 806 805 804 803 803 802 801 800 798 798 797 796 795 794 793 793 792 791 790 789 788 787 786 785 784 783 781 780
835 834 833 833 833 832 832 831 831 831 830 830 829 829 828 828 827 826 825 824 823 823 822 821 820 819 818 817 816 815 814 813 813 812 811 810 809 808 808 807 806 805 804 803 803 802 801 800 799 798 797 796 795 794 793 793 792 791 790 789 788 787 786 785 784 783 782 780 779
833 833 833 832 832 831 831 831 830 830 829 829 828 828 827 827 826 825 824 823 823 822 821 820 819 818 817 816 815 814 813 813 812 811 810 809 808 808 807 806 805 804 803 803 802 801 800 799 798 797 797 796 795 794 793 792 791 790 789 788 788 787 786 784 783 782 781 779 778
833 832 832 831 831 830 830 830 829 829 828 828 828 827 827 826 825 824 824 823 822 821 820 819 818 817 816 815 814 813 813 812 811 810 809 809 808 807 806 805 804 803 803 802 801 800 799 798 797 796 796 795 794 793 793 792 791 790 789 788 787 786 785 784 783 781 780 778 777
832 831 831 830 830 829 829 829 828 828 828 827 827 826 826 825 824 823 823 822 821 820 819 818 817 816 815 814 813 813 812 811 810 810 809 808 807 806 805 804 804 803 802 801 800 799 798 798 797 796 795 794 793 793 792 791 790 789 788 788 786 785 784 783 782 780 779 778 776
831 830 830 829 829 828 828 828 828 827 827 826 826 825 825 824 823 823 822 821 820 819 818 818 817 816 814 813 813 812 811 810 810 809 808 808 807 806 805 804 803 802 801 801 799 798 798 797 796 795 794 793 793 792 791 790 789 788 788 787 786 784 783 782 781 779 778 777 775
830 829 829 828 828 828 828 827 827 826 826 825 825 824 824 823 823 822 821 820 819 818 818 817 816 815 814 813 812 811 810 809 809 808 808 807 806 805 804 803 803 802 801 800 799 798 797 796 795 794 794 793 792 791 790 789 788 788 787 786 784 783 782 781 779 778 777 776 774
829 828 828 828 827 827 827 826 826 825 825 825 824 823 823 822 822 821 820 819 818 818 817 816 815 814 813 812 811 810 809 808 808 807 807 806 805 804 803 803 802 801 800 799 799 798 797 796 795 794 793 792 791 790 789 788 787 786 785 784 783 782 781 780 778 777 776 774 773
828 828 827 827 826 826 826 825 825 825 824 824 823 823 822 821 821 820 819 818 817 816 816 815 814 813 812 811 810 810 809 808 807 807 806 805 805 804 803 802 801 801 800 799 798 798 797 795 794 793 792 791 790 789 788 787 786 785 784 783 782 781 780 778 777 776 774 773 772
827 827 826 826 825 825 825 824 824 824 823 823 822 822 821 820 820 819 818 817 816 815 815 814 813 812 812 811 810 809 808 808 807 806 805 805 804 803 802 802 801 800 799 799 798 797 796 795 794 793 792 790 789 788 787 786 785 784 783 782 781 779 778 777 776 775 773 772 771
826 826 825 825 824 824 824 824 823 823 823 822 821 821 820 819 819 818 817 817 816 815 814 813 812 812 811 810 809 808 808 807 806 806 805 804 803 803 802 801 800 800 799 798 798 797 796 795 794 793 792 790 788 787 786 785 784 783 782 781 779 778 777 776 775 773 772 771 770
825 825 824 824 824 823 823 823 823 822 822 821 820 820 819 818 818 817 816 816 815 814 813 813 812 811 810 809 809 808 807 807 806 805 804 804 803 802 802 801 800 799 798 798 797 796 795 794 793 792 791 789 788 787 785 784 783 782 781 779 778 777 776 774 773 772 771 769 768
825 824 824 823 823 823 823 822 822 822 821 820 820 819 818 818 817 816 816 815 814 814 813 812 812 811 810 809 808 808 807 806 805 805 804 803 803 802 801 801 800 799 798 798 797 796 795 793 793 792 790 789 788 786 785 783 782 781 779 778 777 776 774 773 772 771 770 769 767